| time (UTC) | temp F | wind direction | speed knots | gust knots | rain 1hr in | rain 24hr in | rain mn in | humidity % | barometer mb |
| 20260509000002 | 66 | 232 | 0.0 | 1.7 | 0.00 | 0.00 | 0.00 | 43 | 1012.2 |
| 20260508234600 | 68 | 350 | 0.0 | 1.7 | 0.00 | 0.00 | 0.00 | 36 | 1012.1 |
| 20260508233059 | 70 | 360 | 0.0 | 1.7 | 0.00 | 0.00 | 0.00 | 30 | 1012.2 |
| 20260508231600 | 71 | 343 | 0.9 | 3.5 | 0.00 | 0.00 | 0.00 | 29 | 1012.1 |
| 20260508230126 | 71 | 291 | 1.7 | 4.3 | 0.00 | 0.00 | 0.00 | 29 | 1012.3 |
| 20260508224602 | 70 | 5 | 0.9 | 4.3 | 0.00 | 0.00 | 0.00 | 26 | 1012.3 |
| 20260508223053 | 70 | 269 | 0.9 | 5.2 | 0.00 | 0.00 | 0.00 | 29 | 1012.4 |
| 20260508221552 | 70 | 33 | 1.7 | 4.3 | 0.00 | 0.00 | 0.00 | 25 | 1012.4 |
| 20260508220117 | 70 | 326 | 2.6 | 7.8 | 0.00 | 0.00 | 0.00 | 25 | 1012.6 |
| 20260508214552 | 70 | 9 | 0.9 | 3.5 | 0.00 | 0.00 | 0.00 | 25 | 1012.6 |
| 20260508213053 | 70 | 309 | 1.7 | 5.2 | 0.00 | 0.00 | 0.00 | 24 | 1012.3 |
| 20260508211550 | 70 | 5 | 0.9 | 7.8 | 0.00 | 0.00 | 0.00 | 25 | 1012.3 |
| 20260508210046 | 70 | 257 | 3.5 | 7.8 | 0.00 | 0.00 | 0.00 | 24 | 1012.4 |
| 20260508204546 | 70 | 231 | 3.5 | 7.0 | 0.00 | 0.00 | 0.00 | 25 | 1012.5 |
| 20260508203046 | 69 | 309 | 1.7 | 8.7 | 0.00 | 0.00 | 0.00 | 28 | 1012.7 |
| 20260508201545 | 69 | 119 | 0.9 | 7.0 | 0.00 | 0.00 | 0.00 | 28 | 1013.0 |
| 20260508200038 | 69 | 238 | 1.7 | 6.1 | 0.00 | 0.00 | 0.00 | 26 | 1013.6 |
| 20260508194536 | 69 | 163 | 2.6 | 9.6 | 0.00 | 0.00 | 0.00 | 25 | 1014.0 |
| 20260508193034 | 69 | 238 | 4.3 | 8.7 | 0.00 | 0.00 | 0.00 | 24 | 1014.3 |
| 20260508191531 | 68 | 62 | 0.9 | 5.2 | 0.00 | 0.00 | 0.00 | 23 | 1014.4 |
| 20260508190034 | 68 | 88 | 0.9 | 4.3 | 0.00 | 0.00 | 0.00 | 25 | 1014.5 |
| 20260508184539 | 68 | 196 | 1.7 | 8.7 | 0.00 | 0.00 | 0.00 | 23 | 1014.9 |
| 20260508183027 | 68 | 143 | 1.7 | 6.1 | 0.00 | 0.00 | 0.00 | 24 | 1015.1 |
| 20260508181532 | 67 | 175 | 0.9 | 5.2 | 0.00 | 0.00 | 0.00 | 26 | 1015.2 |
| 20260508180024 | 67 | 250 | 0.9 | 6.1 | 0.00 | 0.01 | 0.00 | 22 | 1015.3 |
| 20260508174530 | 66 | 267 | 1.7 | 7.0 | 0.00 | 0.01 | 0.00 | 20 | 1015.5 |
| 20260508173017 | 65 | 240 | 0.9 | 2.6 | 0.00 | 0.01 | 0.00 | 22 | 1015.7 |
| 20260508171516 | 64 | 265 | 0.9 | 4.3 | 0.00 | 0.01 | 0.00 | 23 | 1016.1 |
| 20260508170014 | 64 | 226 | 1.7 | 4.3 | 0.00 | 0.01 | 0.00 | 26 | 1016.6 |
| 20260508164510 | 64 | 170 | 1.7 | 4.3 | 0.00 | 0.01 | 0.00 | 25 | 1016.8 |
| 20260508163009 | 64 | 265 | 1.7 | 3.5 | 0.00 | 0.01 | 0.00 | 35 | 1017.1 |
| 20260508161504 | 62 | 22 | 1.7 | 4.3 | 0.00 | 0.01 | 0.00 | 34 | 1017.2 |
| 20260508160105 | 62 | 333 | 0.0 | 2.6 | 0.00 | 0.01 | 0.00 | 36 | 1017.6 |
| 20260508154556 | 61 | 227 | 0.9 | 3.5 | 0.00 | 0.01 | 0.00 | 41 | 1017.8 |
| 20260508153054 | 60 | 36 | 1.7 | 7.0 | 0.00 | 0.01 | 0.00 | 43 | 1017.9 |
| 20260508151548 | 59 | 60 | 1.7 | 3.5 | 0.00 | 0.01 | 0.00 | 46 | 1018.1 |
| 20260508150044 | 57 | 173 | 0.0 | 2.6 | 0.00 | 0.03 | 0.00 | 64 | 1018.2 |
| 20260508144539 | 55 | 211 | 1.7 | 2.6 | 0.00 | 0.03 | 0.00 | 70 | 1018.3 |
| 20260508143036 | 54 | 130 | 0.0 | 2.6 | 0.00 | 0.03 | 0.00 | 77 | 1018.4 |
| 20260508141533 | 52 | 235 | 1.7 | 4.3 | 0.00 | 0.03 | 0.00 | 79 | 1018.3 |
| 20260508140035 | 51 | 116 | 0.9 | 3.5 | 0.00 | 0.03 | 0.00 | 79 | 1018.4 |
| 20260508134531 | 48 | 32 | 0.0 | 0.0 | 0.00 | 0.03 | 0.00 | 79 | 1018.3 |
| 20260508133021 | 47 | 98 | 0.0 | 2.6 | 0.00 | 0.03 | 0.00 | 79 | 1018.3 |
| 20260508131519 | 46 | 214 | 0.9 | 3.5 | 0.00 | 0.03 | 0.00 | 79 | 1018.2 |
| 20260508130017 | 46 | 119 | 0.0 | 0.9 | 0.00 | 0.04 | 0.00 | 79 | 1018.2 |
| 20260508124515 | 44 | 83 | 0.0 | 0.0 | 0.00 | 0.04 | 0.00 | 79 | 1018.3 |
| 20260508123013 | 43 | 83 | 0.0 | 2.6 | 0.00 | 0.04 | 0.00 | 79 | 1018.2 |
| 20260508121513 | 43 | 98 | 0.0 | 1.7 | 0.00 | 0.04 | 0.00 | 79 | 1018.0 |
| 20260508120011 | 42 | 98 | 0.0 | 0.0 | 0.00 | 0.04 | 0.00 | 79 | 1017.7 |
| 20260508114505 | 41 | 98 | 0.0 | 0.0 | 0.00 | 0.04 | 0.00 | 79 | 1017.6 |
| 20260508113001 | 41 | 98 | 0.0 | 1.7 | 0.00 | 0.04 | 0.00 | 79 | 1017.4 |
| 20260508111558 | 41 | 98 | 0.9 | 1.7 | 0.00 | 0.04 | 0.00 | 79 | 1017.1 |
| 20260508110055 | 41 | 98 | 0.0 | 1.7 | 0.00 | 0.04 | 0.00 | 79 | 1016.9 |
| 20260508104552 | 40 | 98 | 0.0 | 0.0 | 0.00 | 0.04 | 0.00 | 79 | 1016.7 |
| 20260508103051 | 40 | 98 | 0.0 | 0.0 | 0.00 | 0.04 | 0.00 | 78 | 1016.6 |
| 20260508101549 | 41 | 98 | 0.0 | 0.0 | 0.00 | 0.04 | 0.00 | 79 | 1016.3 |
| 20260508100048 | 40 | 98 | 0.0 | 0.0 | 0.00 | 0.04 | 0.00 | 78 | 1016.2 |
| 20260508094606 | 41 | 98 | 0.0 | 0.0 | 0.00 | 0.04 | 0.00 | 78 | 1016.2 |
| 20260508093045 | 41 | 98 | 0.0 | 0.0 | 0.00 | 0.04 | 0.00 | 78 | 1016.1 |
| 20260508091544 | 41 | 98 | 0.0 | 0.0 | 0.00 | 0.04 | 0.00 | 78 | 1016.1 |
| 20260508090048 | 42 | 98 | 0.0 | 0.0 | 0.00 | 0.06 | 0.00 | 78 | 1016.0 |
| 20260508084539 | 42 | 98 | 0.0 | 0.0 | 0.00 | 0.06 | 0.00 | 78 | 1015.8 |
| 20260508083037 | 43 | 98 | 0.0 | 0.0 | 0.00 | 0.06 | 0.00 | 78 | 1015.6 |
| 20260508081636 | 43 | 98 | 0.0 | 0.0 | 0.00 | 0.06 | 0.00 | 78 | 1015.7 |
| 20260508080032 | 44 | 98 | 0.0 | 0.0 | 0.00 | 0.07 | 0.00 | 78 | 1015.7 |
| 20260508074531 | 44 | 98 | 0.0 | 0.0 | 0.00 | 0.07 | 0.00 | 78 | 1015.7 |
| 20260508073030 | 44 | 98 | 0.0 | 0.0 | 0.00 | 0.07 | 0.00 | 78 | 1015.7 |
| 20260508071539 | 45 | 98 | 0.0 | 0.0 | 0.00 | 0.07 | 0.00 | 78 | 1015.7 |
| 20260508070026 | 45 | 98 | 0.0 | 0.0 | 0.00 | 0.07 | 0.00 | 78 | 1015.5 |
| 20260508064527 | 46 | 98 | 0.0 | 0.0 | 0.00 | 0.07 | 0.00 | 78 | 1015.6 |
| 20260508063032 | 46 | 98 | 0.0 | 0.0 | 0.00 | 0.07 | 0.00 | 78 | 1015.5 |
| 20260508061523 | 46 | 98 | 0.0 | 0.0 | 0.00 | 0.07 | 0.00 | 79 | 1015.7 |
| 20260508060022 | 46 | 98 | 0.0 | 0.0 | 0.00 | 0.09 | 0.00 | 78 | 1015.7 |
| 20260508054522 | 46 | 98 | 0.0 | 0.0 | 0.00 | 0.09 | 0.00 | 78 | 1015.7 |
| 20260508053023 | 45 | 98 | 0.0 | 0.0 | 0.00 | 0.09 | 0.00 | 78 | 1015.9 |
| 20260508051522 | 46 | 98 | 0.0 | 0.0 | 0.00 | 0.09 | 0.00 | 77 | 1015.8 |
| 20260508050017 | 47 | 98 | 0.0 | 0.0 | 0.00 | 0.09 | 0.00 | 78 | 1015.6 |
| 20260508044514 | 47 | 98 | 0.0 | 0.0 | 0.00 | 0.09 | 0.00 | 78 | 1015.3 |
| 20260508043013 | 47 | 98 | 0.0 | 0.0 | 0.00 | 0.09 | 0.00 | 78 | 1015.3 |
| 20260508041511 | 47 | 98 | 0.0 | 0.0 | 0.00 | 0.09 | 0.00 | 78 | 1015.2 |
| 20260508040009 | 47 | 98 | 0.0 | 0.0 | 0.00 | 0.10 | 0.09 | 77 | 1015.1 |
| 20260508034508 | 47 | 98 | 0.0 | 0.0 | 0.00 | 0.10 | 0.09 | 76 | 1015.1 |
| 20260508033007 | 48 | 98 | 0.0 | 0.0 | 0.00 | 0.10 | 0.09 | 76 | 1014.9 |
| 20260508031507 | 48 | 98 | 0.0 | 0.0 | 0.00 | 0.10 | 0.09 | 76 | 1015.0 |
| 20260508030007 | 48 | 98 | 0.0 | 0.0 | 0.00 | 0.10 | 0.09 | 73 | 1015.0 |
| 20260508024502 | 48 | 98 | 0.0 | 0.0 | 0.00 | 0.10 | 0.09 | 73 | 1014.8 |
| 20260508023059 | 49 | 98 | 0.0 | 0.0 | 0.00 | 0.10 | 0.09 | 73 | 1014.4 |
| 20260508021557 | 50 | 98 | 0.0 | 0.0 | 0.00 | 0.10 | 0.09 | 73 | 1014.1 |
| 20260508014553 | 52 | 98 | 0.0 | 0.0 | 0.00 | 0.11 | 0.09 | 72 | 1013.9 |
| 20260508013049 | 52 | 98 | 0.0 | 0.0 | 0.00 | 0.11 | 0.09 | 72 | 1013.5 |
| 20260508011546 | 53 | 98 | 0.0 | 0.0 | 0.00 | 0.11 | 0.09 | 72 | 1013.3 |
| 20260508010044 | 54 | 98 | 0.0 | 0.0 | 0.00 | 0.14 | 0.09 | 72 | 1013.1 |
| 20260508004544 | 55 | 230 | 0.0 | 0.0 | 0.00 | 0.14 | 0.09 | 72 | 1013.0 |
| 20260508003043 | 56 | 111 | 0.0 | 0.0 | 0.00 | 0.14 | 0.09 | 71 | 1012.8 |
| 20260508001542 | 57 | 271 | 0.0 | 1.7 | 0.00 | 0.14 | 0.09 | 71 | 1012.5 |